Simultaneous Nadir Overpasses (SNOs) Predictions

Prediction of SNOs between FY3D and TERRA Satellite Orbit:

Table of predicted SNOs for the next 14.0 days since TLE Epoch: 9/28/2024
Index Date (FY3D) Time (FY3D) Lat,Lon (FY3D) SZA (FY3D ) Date (TERRA) Time (TERRA) Lat,Lon (TERRA) SZA (TERRA ) Distance(km) Time Diff (sec)
1 09/28/2024 09:09:14 76.31, 42.86 78.53 09/28/2024 09:09:46 76.31, 42.94 78.53 2.11 32
2 09/28/2024 09:59:56 -76.23,-149.53 101.54 09/28/2024 09:59:09 -76.23,-149.67 101.55 3.91 47
3 09/30/2024 20:21:54 76.29,-125.19 79.47 09/30/2024 20:22:30 76.30,-125.34 79.47 4.02 36
4 09/30/2024 21:12:38 -76.25, 42.27 100.56 09/30/2024 21:11:53 -76.26, 42.21 100.55 1.82 45
5 10/03/2024 07:34:36 76.34, 66.54 80.47 10/03/2024 07:35:13 76.32, 66.52 80.46 1.53 37
6 10/03/2024 08:25:20 -76.29,-125.98 99.56 10/03/2024 08:24:36 -76.29,-125.91 99.56 1.94 44
7 10/05/2024 18:47:17 76.35,-101.62 81.44 10/05/2024 18:47:55 76.35,-101.62 81.44 0.26 38
8 10/05/2024 19:38:01 -76.30, 65.87 98.60 10/05/2024 19:37:18 -76.32, 65.96 98.58 3.35 43
9 10/08/2024 05:59:58 76.38, 90.16 82.41 10/08/2024 06:00:36 76.37, 90.24 82.40 2.26 38
10 10/08/2024 06:50:42 -76.32,-102.33 97.63 10/08/2024 06:50:00 -76.30,-102.33 97.67 3.10 42
11 10/10/2024 17:12:38 76.37, -77.95 83.34 10/10/2024 17:13:16 76.39, -77.91 83.36 1.61 38



Historial Predications of SNOs between FY3D and TERRA
